SPACECUBE

Last updated on March 2, 2019, 12:02 a.m. UTC

1 42717U 98067LY  19059.60577340  .11886658  12464-4  71601-3 0  9999
2 42717  51.6020 100.2529 0001466  12.7224 347.7311 16.41511985101572

Satellite is not in orbit.